Volver al catálogo

NOAA 19

ActivoMeteoSSO
NORAD 33591·PAYLOAD·🇺🇸 United States

Lanzado Feb 6, 2009 desde Vandenberg Space Force Base

Loading…

Próximos Pases (próximas 24 horas)

TLE

ActualizadoSource: Space-Track

Época: Sep 14, 2026, 14:17 UTC

1 33591U 09005A   26257.59534950  .00000017  00000-0  32783-4 0  9992
2 33591  98.9444 328.5008 0014557 134.7351 225.5009 14.13485687907111

Sigue NOAA 19 en tiempo real con AllMySat

Download on the App Store